Tracking 31027 objects as of 19-Jul-2025
HD Live streaming from Space Station
objects crossing your sky now

SL-14 R/B

Track SL-14 R/B now!
10-day predictions


NORAD ID: 17296
Int'l Code: 1987-003B
Perigee: 607.3 km
Apogee: 632.1 km
Inclination: 82.5 °
Period: 96.9 minutes
Semi major axis: 6990 km
RCS: 4.4495 m2 (large)
Launch date: January 14, 1987
Source: Commonwealth of Independent States (former USSR) (CIS)
Launch site: PLESETSK MISSILE AND SPACE COMPLEX (PKMTR)

Note: This is a ROCKET BODY
Your satellite tracking list
GALASSIA
Track 1 satellite(s)




NASA's NSSDC Master Catalog

Two Line Element Set (TLE):
1 17296U 87003B   25199.54834852  .00000359  00000-0  38809-4 0  9997
2 17296  82.5304 140.8446 0017706 193.3203 166.7549 14.85320810 59945
Source of the keplerian elements: AFSPC